Weather History for Tampa Executive, FL

Change the Weather History Date:

Wednesday, May 23, 2012

  Actual Average (KTPA) Record (KTPA)
Temperature  
Mean Temperature 78 °F 80 °F  
Max Temperature 95 °F 89 °F 95 °F (1975)
Min Temperature 60 °F 71 °F 58 °F (1892)
Degree Days  
Heating Degree Days 0 0  
Month to date heating degree days 0  
Since 1 July heating degree days 538  
Cooling Degree Days 12 15  
Month to date cooling degree days 293  
Year to date cooling degree days 753  
Growing Degree Days 28 (Base 50)    
Moisture  
Dew Point 62 °F    
Average Humidity 64    
Maximum Humidity 100    
Minimum Humidity 25    
Precipitation  
Precipitation 0.00 in 0.08 in 3.12 in (1924)
Month to date precipitation 1.35  
Year to date precipitation 11.45  
Sea Level Pressure  
Sea Level Pressure 29.90 in    
Wind  
Wind Speed 1 mph (North)    
Max Wind Speed 9 mph    
Max Gust Speed -    
Visibility 8 miles    
Events Fog    
T = Trace of Precipitation, MM = Missing Value Source: NWS Daily Summary

Daily Weather History Graph

Daily Weather History Graph

Search for Another Location

Airport:

Trip Planner

Search our weather history database for the weather conditions in past years. The results will help you decide how hot, cold, wet, or windy it might be!

Date:

Astronomy

May. 23, 2012 Rise Set
Actual Time 6:35 AM EDT 8:16 PM EDT
Civil Twilight 6:09 AM EDT 8:43 PM EDT
Nautical Twilight 5:38 AM EDT 9:14 PM EDT
Astronomical Twilight 5:05 AM EDT 9:47 PM EDT
Moon 8:38 AM EDT (5/23) 10:38 PM EDT (5/23)
Length of Visible Light 14h 33m
Length of Day
13h 41m
Waxing Crescent, 6% of the Moon is Illuminated
May 23
Waxing Crescent
May 28
First Quarter
Jun 4
Full
Jun 11
Last Quarter
Jun 19
New

Hourly Weather History & Observations

Time (EDT) Temp. Heat Index Dew Point Humidity Pressure Visibility Wind Dir Wind Speed Gust Speed Precip Events Conditions
12:15 AM 69.8 °F - 64.4 °F 83% 29.94 in 10.0 mi Calm Calm - N/A   Clear
12:35 AM 68.0 °F - 62.6 °F 83% 29.93 in 10.0 mi Calm Calm - N/A   Clear
12:55 AM 66.2 °F - 62.6 °F 88% 29.93 in 5.0 mi Calm Calm - N/A   Clear
1:15 AM 66.2 °F - 64.4 °F 94% 29.93 in 2.0 mi Calm Calm - N/A   Clear
1:35 AM 64.4 °F - 62.6 °F 94% 29.93 in 7.0 mi Calm Calm - N/A   Clear
1:55 AM 64.4 °F - 62.6 °F 94% 29.92 in 5.0 mi Calm Calm - N/A   Clear
2:15 AM 64.4 °F - 62.6 °F 94% 29.91 in 4.0 mi Calm Calm - N/A   Clear
2:35 AM 64.4 °F - 62.6 °F 94% 29.91 in 5.0 mi Calm Calm - N/A   Clear
2:55 AM 62.6 °F - 60.8 °F 94% 29.91 in 4.0 mi Calm Calm - N/A   Clear
3:15 AM 62.6 °F - 60.8 °F 94% 29.90 in 2.5 mi Calm Calm - N/A   Clear
3:35 AM 60.8 °F - 60.8 °F 100% 29.91 in 1.0 mi Calm Calm - N/A   Mist
3:55 AM 62.6 °F - 60.8 °F 94% 29.90 in 2.0 mi Calm Calm - N/A   Clear
4:15 AM 60.8 °F - 60.8 °F 100% 29.90 in 2.5 mi Calm Calm - N/A   Clear
4:35 AM 60.8 °F - 60.8 °F 100% 29.90 in 2.5 mi Calm Calm - N/A   Clear
4:55 AM 60.8 °F - 59.0 °F 94% 29.90 in 3.0 mi Calm Calm - N/A   Clear
5:15 AM 60.8 °F - 59.0 °F 94% 29.90 in 5.0 mi Calm Calm - N/A   Clear
5:35 AM 60.8 °F - 59.0 °F 94% 29.90 in 1.5 mi Calm Calm - N/A   Mist
5:55 AM 60.8 °F - 59.0 °F 94% 29.91 in 0.2 mi Calm Calm - N/A Fog Fog
6:15 AM 60.8 °F - 59.0 °F 94% 29.90 in 7.0 mi Calm Calm - N/A   Clear
6:35 AM 60.8 °F - 59.0 °F 94% 29.91 in 5.0 mi Calm Calm - N/A   Clear
6:55 AM 60.8 °F - 59.0 °F 94% - 1.2 mi North - - N/A   Mist
7:15 AM 60.8 °F - 59.0 °F 94% - 3.0 mi North - - N/A   Mist
7:35 AM - - - N/A% 29.93 in 2.5 mi North - - N/A   Mist
8:15 AM 68.0 °F - 64.4 °F 88% - 4.0 mi North - - N/A   Mist
8:35 AM - - - N/A% - 5.0 mi North - - N/A   Haze
8:55 AM 69.8 °F - 68.0 °F 94% - 7.0 mi North - - N/A   Unknown
9:15 AM 75.2 °F - 69.8 °F 83% 29.95 in 10.0 mi Calm Calm - N/A   Clear
9:35 AM 78.8 °F - 69.8 °F 74% 29.95 in 10.0 mi Calm Calm - N/A   Clear
10:15 AM 80.6 °F 83.9 °F 69.8 °F 70% 29.95 in 10.0 mi Calm Calm - N/A   Clear
10:35 AM 82.4 °F 85.4 °F 68.0 °F 62% 29.95 in 10.0 mi North 3.5 mph - N/A   Scattered Clouds
10:55 AM 82.4 °F 83.9 °F 64.4 °F 54% 29.95 in 10.0 mi Calm Calm - N/A   Scattered Clouds
11:15 AM 86.0 °F 87.3 °F 64.4 °F 48% 29.95 in 10.0 mi North 3.5 mph - N/A   Clear
11:35 AM 86.0 °F 87.3 °F 64.4 °F 48% 29.94 in 10.0 mi Calm Calm - N/A   Clear
11:55 AM 87.8 °F 88.5 °F 62.6 °F 43% 29.94 in 10.0 mi Calm Calm - N/A   Clear
12:15 PM 87.8 °F 87.6 °F 60.8 °F 40% 29.93 in 10.0 mi ESE 4.6 mph - N/A   Clear
12:35 PM 87.8 °F 87.6 °F 60.8 °F 40% 29.93 in 10.0 mi North 6.9 mph - N/A   Clear
12:55 PM 89.6 °F 88.9 °F 59.0 °F 36% 29.92 in 10.0 mi Calm Calm - N/A   Clear
1:15 PM 89.6 °F 88.9 °F 59.0 °F 36% 29.91 in 10.0 mi North 4.6 mph - N/A   Clear
1:35 PM 91.4 °F 89.4 °F 55.4 °F 29% 29.91 in 10.0 mi NE 4.6 mph - N/A   Clear
1:55 PM 91.4 °F 89.4 °F 55.4 °F 29% 29.91 in 10.0 mi ENE 8.1 mph - N/A   Clear
2:15 PM 91.4 °F 89.1 °F 53.6 °F 28% 29.90 in 10.0 mi Calm Calm - N/A   Clear
2:35 PM 93.2 °F 91.3 °F 55.4 °F 28% 29.89 in 10.0 mi Calm Calm - N/A   Clear
2:55 PM 93.2 °F 90.8 °F 53.6 °F 26% 29.88 in 10.0 mi Calm Calm - N/A   Clear
3:15 PM 93.2 °F 90.8 °F 53.6 °F 26% 29.87 in 10.0 mi ESE 3.5 mph - N/A   Clear
3:35 PM 93.2 °F 91.3 °F 55.4 °F 28% 29.87 in 10.0 mi NW 4.6 mph - N/A   Scattered Clouds
4:15 PM 95.0 °F 93.0 °F 55.4 °F 26% 29.86 in 10.0 mi NW 3.5 mph - N/A   Clear
4:35 PM 93.2 °F 90.8 °F 53.6 °F 26% 29.85 in 10.0 mi NE 3.5 mph - N/A   Scattered Clouds
4:55 PM 91.4 °F 89.4 °F 55.4 °F 29% 29.84 in 10.0 mi Calm Calm - N/A   Clear
5:15 PM 95.0 °F 92.7 °F 53.6 °F 25% 29.84 in 10.0 mi Calm Calm - N/A   Clear
5:35 PM 95.0 °F 92.7 °F 53.6 °F 25% 29.84 in 10.0 mi Calm Calm - N/A   Clear
5:55 PM 93.2 °F 90.8 °F 53.6 °F 26% 29.83 in 10.0 mi Calm Calm - N/A   Clear
6:15 PM 91.4 °F 91.4 °F 60.8 °F 36% 29.83 in 10.0 mi NW 9.2 mph - N/A   Scattered Clouds
6:35 PM 89.6 °F 91.1 °F 64.4 °F 43% 29.83 in 10.0 mi WNW 6.9 mph - N/A   Clear
6:55 PM 89.6 °F 91.1 °F 64.4 °F 43% 29.84 in 10.0 mi WNW 8.1 mph - N/A   Scattered Clouds
7:15 PM 87.8 °F 89.4 °F 64.4 °F 46% 29.84 in 10.0 mi NW 5.8 mph - N/A   Clear
7:35 PM 86.0 °F 87.3 °F 64.4 °F 48% 29.84 in 10.0 mi NNW 8.1 mph - N/A   Clear
7:55 PM 86.0 °F 87.3 °F 64.4 °F 48% 29.85 in 10.0 mi NNW 5.8 mph - N/A   Clear
8:15 PM 84.2 °F 85.6 °F 64.4 °F 51% 29.86 in 10.0 mi NW 3.5 mph - N/A   Clear
8:35 PM 82.4 °F 83.9 °F 64.4 °F 54% 29.86 in 10.0 mi NW 3.5 mph - N/A   Clear
8:55 PM 80.6 °F 82.3 °F 64.4 °F 58% 29.86 in 10.0 mi NNW 3.5 mph - N/A   Clear
9:15 PM 78.8 °F - 66.2 °F 65% 29.86 in 10.0 mi NNW 3.5 mph - N/A   Clear
9:35 PM 78.8 °F - 66.2 °F 65% 29.87 in 10.0 mi ENE 4.6 mph - N/A   Clear
9:55 PM 78.8 °F - 66.2 °F 65% 29.89 in 10.0 mi East 3.5 mph - N/A   Clear
10:15 PM 77.0 °F - 66.2 °F 69% 29.90 in 10.0 mi Calm Calm - N/A   Clear
10:35 PM 73.4 °F - 66.2 °F 78% 29.91 in 10.0 mi Calm Calm - N/A   Clear
11:15 PM 75.2 °F - 68.0 °F 78% 29.91 in 10.0 mi Calm Calm - N/A   Scattered Clouds
11:35 PM 78.8 °F - 69.8 °F 74% 29.91 in 10.0 mi Calm Calm - N/A   Mostly Cloudy
11:55 PM 78.8 °F - 69.8 °F 74% 29.91 in 10.0 mi ESE 3.5 mph - N/A   Mostly Cloudy